Location: Unspecified
(0.0000°N, 0.0000°E)
Time: 09:14:50
(UTC+02:00)

Cosmos 1538 Rocket - Visible Passes

Search period start: 26 March 2017 00:00
Search period end: 05 April 2017 01:00
Orbit: 752 x 792 km, 74.0° (Epoch: 24 March)

Date Brightness Start Highest point End Pass type
(mag) Time Alt. Az. Time Alt. Az. Time Alt. Az.
26 Mar 4.8 07:40:53 10° S 07:46:11 61° ESE 07:51:26 10° NNE visible
27 Mar 6.1 07:05:46 10° SSE 07:10:28 31° ESE 07:15:07 10° NE visible
28 Mar 7.0 06:31:33 10° SE 06:34:44 16° ESE 06:37:52 10° ENE visible
29 Mar 4.1 07:35:35 10° SSW 07:40:53 61° WNW 07:46:09 10° N visible
30 Mar 4.4 06:59:50 10° S 07:05:11 68° ESE 07:10:28 10° NNE visible
31 Mar 5.7 06:24:38 10° SSE 06:29:28 34° ESE 06:34:15 10° NE visible
01 Apr 6.6 05:50:14 10° SE 05:53:44 18° ESE 05:57:12 10° ENE visible
01 Apr 4.9 07:31:04 10° SW 07:35:35 28° WNW 07:40:05 10° NNW visible
02 Apr 4.1 06:54:39 10° SSW 06:59:53 55° WNW 07:05:04 10° N visible
03 Apr 4.1 06:20:38 22° S 06:24:11 75° ESE 06:29:29 10° NNE visible
04 Apr 5.3 05:47:45 36° ESE 05:48:28 38° ESE 05:53:20 10° NE visible
04 Apr 5.7 07:28:14 10° W 07:30:18 13° WNW 07:32:32 10° NW visible
